Regional Weather Roundup
Issued by NWS

Home | Current Version | Previous Version | Text Only | Print | Product List | Glossary On
Versions: 1 2 3 4 5 6 7 8 9 10 11 12 13 14 15 16 17 18 19 20 21 22 23 24 25 26 27 28 29 30 31 32 33 34 35 36 37 38 39 40 41 42 43 44 45 46 47 48 49 50
000
ASUS46 KSTO 290304
RWRCA

NORTHERN AND CENTRAL CA REGIONAL WEATHER ROUNDUP
NATIONAL WEATHER SERVICE SACRAMENTO CA
700 PM PST FRI NOV 28 2014

NOTE: FAIR INDICATES FEW OR NO CLOUDS BELOW 12,000 FEET WITH NO
SIGNIFICANT WEATHER AND/OR OBSTRUCTIONS TO VISIBILITY.

CAZ001-003-290400-
NORTHWEST AREA

CITY           SKY/WX    TMP DP  RH WIND       PRES   REMARKS
CRESCENT CITY  CLOUDY    58  57  97 S14       29.73F
UKIAH          LGT RAIN  53  52  96 CALM      29.84F FOG
$$

CAZ006-505>513-290400-
BAY AREA

CITY           SKY/WX    TMP DP  RH WIND       PRES   REMARKS
SANTA ROSA     HVY RAIN  55  55 100 CALM      29.86S FOG
SAN RAFAEL     N/A       62  MM  MM MISG
NAPA           CLOUDY    57  54  89 S9        29.86F
CONCORD        CLOUDY    59  51  75 S8        29.86F
OAKLAND CITY   N/A       61  MM  MM MISG
OAKLAND        PTCLDY    58  51  78 SW9       29.88S
SAN FRAN CITY  N/A       58  MM  75 MISG
SAN FRAN ARPT  MOCLDY    59  52  77 S10       29.88S
LIVERMORE      CLEAR     56  49  77 CALM      29.87S
HAYWARD        CLEAR     53  50  89 CALM      29.88F
REDWOOD CITY   N/A       MM  MM  MM MISG
MOFFETT ARPT   CLEAR     55  52  89 S3        29.89S
SAN JOSE ARPT  PTCLDY    55  50  83 NW5       29.88S
$$
CAZ034-037-514>518-290400-
CENTRAL COAST

CITY           SKY/WX    TMP DP  RH WIND       PRES   REMARKS
WATSONVILLE    PTCLDY    52  47  83 NW3       29.91S
SALINAS        MOCLDY    57  50  77 NW3       29.91S
MONTEREY       MOCLDY    54  49  83 CALM      29.91F
SAN LUIS OBISP CLEAR     53  52  96 SW3       29.92R
SANTA MARIA    MOCLDY    55  49  80 S3        29.92S
$$
CAZ015-016-290400-
NORTHERN SACRAMENTO VALLEY

CITY           SKY/WX    TMP DP  RH WIND       PRES   REMARKS
REDDING        LGT RAIN  50  49  96 N3        29.83F FOG
RED BLUFF      RAIN      50  49  96 CALM      29.84F FOG
OROVILLE       CLOUDY    54  52  93 CALM      29.86S FOG
$$
CAZ016>018-290400-
SOUTHERN SACRAMENTO VALLEY

CITY           SKY/WX    TMP DP  RH WIND       PRES   REMARKS
AUBURN         MOCLDY    54  45  71 E7        29.86F
LINCOLN        CLOUDY    54  45  71 CALM      29.83F
MARYSVILLE     CLOUDY    53  50  89 NW7       29.85S FOG
SAC INTL ARPT  MOCLDY    58  49  72 S3        29.85R
MATHER AIRPORT MOCLDY    52  52 100 SE3       29.85F
DOWNTOWN SAC   N/A       57  MM  MM MISG
SAC EXEC ARPT  MOCLDY    58  47  66 S5        29.85S
VACAVILLE      CLOUDY    61  50  67 SW9       29.85S
$$
CAZ019>021-290400-
SAN JOAQUIN VALLEY

CITY           SKY/WX    TMP DP  RH WIND       PRES   REMARKS
STOCKTON       MOCLDY    54  44  69 SE3       29.85F
MODESTO        MOCLDY    53  46  77 CALM      29.86F HAZE
MERCED         PTCLDY    55  46  71 N5        29.85F HAZE
LEMOORE        CLEAR     53  32  44 CALM      29.88S
FRESNO         PTCLDY    57  47  69 E3        29.88S HAZE
HANFORD        CLEAR     54  44  69 CALM      29.88S HAZE
PORTERVILLE    CLEAR     54  45  71 CALM      29.90S
BAKERSFIELD    CLEAR     65  42  43 E7        29.89S
$$
CAZ011-012-071-290400-
NORTHERN MOUNTAINS

CITY           SKY/WX    TMP DP  RH WIND       PRES   REMARKS
YREKA          LGT RAIN  45  42  89 SW6       29.74S
MOUNT SHASTA   CLOUDY    43  40  89 E5        29.78F
ALTURAS        CLOUDY    43  35  73 S13       29.77F
$$
CAZ011-012-071-290400-
SIERRA NEVADA MTNS

CITY           SKY/WX    TMP DP  RH WIND       PRES   REMARKS
BLUE CANYON    CLOUDY    46  27  47 SE9       29.93F
TRUCKEE        PTCLDY    45   3  18 SW21G29   29.91F
TAHOE VLY ARPT MOCLDY    50   3  14 S14G28    29.91F
MAMMOTH LAKES  FAIR      50   3  14 SW18G36   30.01S
$$




USA.gov is the U.S. government's official web portal to all federal, state and local government web resources and services.